EW0531 Weather Reports


Display with metric or nautical units.
time (UTC)temp
F
wind
direction
speed
MPH
gust
MPH
rain 1hr
in
rain 24hr
in
rain mn
in
humidity
%
barometer
mb
20260904104033 69 250 5.0 13.0 0.00 0.05 0.05 77 1015.3
20260904103536 68 273 5.0 16.0 0.00 0.05 0.05 77 1015.2
20260904103106 68 294 7.0 16.0 0.00 0.05 0.05 77 1015.3
20260904102535 68 268 6.0 15.0 0.00 0.05 0.05 77 1015.3
20260904102034 68 276 7.0 18.0 0.00 0.05 0.05 78 1015.4
20260904101604 68 276 8.0 18.0 0.00 0.05 0.05 78 1015.4
20260904101035 68 282 6.0 14.0 0.00 0.05 0.05 80 1015.4
20260904100534 68 279 5.0 14.0 0.00 0.05 0.05 80 1015.2
20260904100053 68 244 5.0 11.0 0.00 0.05 0.05 81 1015.2
20260904095535 68 231 4.0 10.0 0.00 0.05 0.05 82 1015.2
20260904095037 68 236 3.0 10.0 0.00 0.05 0.05 83 1015.0
20260904094559 67 207 2.0 13.0 0.00 0.05 0.05 83 1014.9
20260904094034 67 267 7.0 13.0 0.00 0.05 0.05 83 1014.9
20260904093536 67 280 5.0 11.0 0.00 0.05 0.05 84 1015.0
20260904093100 67 213 3.0 7.0 0.00 0.05 0.05 85 1014.8
20260904092534 67 255 2.0 8.0 0.00 0.05 0.05 85 1014.8
20260904092034 67 269 2.0 8.0 0.00 0.05 0.05 85 1014.6
20260904091557 67 238 2.0 8.0 0.00 0.05 0.05 86 1014.6
20260904091035 67 236 1.0 8.0 0.00 0.05 0.05 86 1014.5
20260904090534 66 0 3.0 8.0 0.00 0.05 0.05 86 1014.5
20260904090052 66 254 3.0 9.0 0.00 0.05 0.05 86 1014.5
20260904085536 66 286 3.0 9.0 0.00 0.05 0.05 86 1014.4
20260904085034 66 252 3.0 14.0 0.00 0.05 0.05 86 1014.4
20260904084601 66 281 5.0 14.0 0.00 0.05 0.05 86 1014.6
20260904084035 66 296 3.0 10.0 0.00 0.05 0.05 87 1014.5
20260904083537 66 268 4.0 10.0 0.01 0.05 0.05 87 1014.5
20260904083102 66 232 4.0 12.0 0.03 0.05 0.05 88 1014.4
20260904082537 66 274 3.0 12.0 0.03 0.05 0.05 88 1014.4
20260904082035 66 0 2.0 8.0 0.03 0.05 0.05 88 1014.3
20260904081555 66 0 3.0 7.0 0.03 0.05 0.05 88 1014.2
20260904081034 66 279 2.0 9.0 0.03 0.05 0.05 88 1014.1
20260904080534 66 269 2.0 9.0 0.03 0.05 0.05 88 1014.2
20260904080105 66 257 3.0 8.0 0.03 0.05 0.05 87 1013.9
20260904075534 66 278 1.0 13.0 0.03 0.05 0.05 87 1013.8
20260904075034 66 259 3.0 13.0 0.03 0.05 0.05 87 1013.8
20260904074634 66 270 5.0 15.0 0.03 0.05 0.05 86 1013.6
20260904074033 67 254 6.0 19.0 0.03 0.05 0.05 86 1013.7
20260904073534 68 244 9.0 19.0 0.01 0.03 0.03 85 1013.7
20260904073058 68 300 9.0 21.0 0.00 0.01 0.01 86 1013.3
20260904072536 68 194 9.0 21.0 0.00 0.01 0.01 86 1013.2
20260904072036 68 288 10.0 20.0 0.00 0.01 0.01 86 1013.2
20260904071600 68 273 12.0 22.0 0.00 0.01 0.01 86 1013.0
20260904071036 68 247 7.0 22.0 0.00 0.01 0.01 86 1013.0
20260904070534 68 233 11.0 22.0 0.00 0.01 0.01 86 1013.1
20260904070104 68 244 9.0 21.0 0.00 0.01 0.01 86 1013.1
20260904065537 68 279 9.0 21.0 0.00 0.02 0.01 86 1012.9
20260904065037 68 244 11.0 21.0 0.00 0.02 0.01 86 1013.0
20260904064600 68 264 9.0 23.0 0.00 0.02 0.01 86 1012.9
20260904064036 68 211 9.0 23.0 0.00 0.02 0.01 86 1013.0
20260904063536 68 224 11.0 21.0 0.00 0.02 0.01 86 1013.0
20260904063110 68 236 9.0 22.0 0.00 0.02 0.01 87 1012.9
20260904062534 68 198 9.0 23.0 0.00 0.02 0.01 87 1013.0
20260904062034 68 269 12.0 23.0 0.00 0.02 0.01 87 1013.0
20260904061601 68 268 9.0 21.0 0.00 0.02 0.01 87 1013.1
20260904061034 68 221 11.0 21.0 0.00 0.02 0.01 87 1013.0
20260904060537 68 224 11.0 21.0 0.00 0.02 0.01 87 1013.0
20260904060114 68 255 9.0 21.0 0.00 0.02 0.01 87 1013.2
20260904055537 68 224 8.0 22.0 0.00 0.03 0.01 87 1013.1
20260904055033 68 184 8.0 22.0 0.00 0.03 0.01 87 1013.0
20260904054606 68 238 11.0 21.0 0.00 0.03 0.01 87 1013.2
20260904054036 68 228 10.0 21.0 0.00 0.03 0.01 87 1013.2
20260904053535 68 210 10.0 21.0 0.00 0.03 0.01 87 1013.3
20260904053059 68 203 11.0 21.0 0.00 0.03 0.01 87 1013.4
20260904052537 68 277 12.0 21.0 0.00 0.03 0.01 87 1013.4
20260904052119 68 259 10.0 23.0 0.00 0.03 0.01 87 1013.3
20260904051556 68 196 10.0 22.0 0.00 0.03 0.01 87 1013.3
20260904051037 68 200 11.0 22.0 0.00 0.03 0.01 87 1013.1
20260904050536 68 221 11.0 21.0 0.00 0.03 0.01 87 1013.1
20260904045537 68 223 10.0 23.0 0.00 0.03 0.01 87 1013.0
20260904045037 68 273 8.0 23.0 0.00 0.03 0.01 87 1013.1
20260904044601 68 290 9.0 22.0 0.00 0.03 0.01 88 1013.3
20260904044036 68 265 9.0 21.0 0.00 0.03 0.01 88 1013.1
20260904043536 68 224 9.0 26.0 0.00 0.03 0.01 88 1013.3
20260904043055 68 208 11.0 26.0 0.00 0.03 0.01 88 1013.3
20260904042536 68 249 8.0 17.0 0.00 0.03 0.01 88 1013.2
20260904042036 68 220 10.0 18.0 0.00 0.03 0.01 88 1013.2
20260904041601 68 227 8.0 18.0 0.00 0.03 0.01 88 1013.2
20260904041036 68 209 6.0 18.0 0.00 0.03 0.01 88 1013.4
20260904040536 67 262 10.0 18.0 0.00 0.03 0.01 88 1013.5
20260904035536 67 219 7.0 21.0 0.00 0.03 0.01 89 1013.6
20260904035035 67 229 8.0 19.0 0.00 0.03 0.01 89 1013.6
20260904034609 67 206 10.0 18.0 0.00 0.03 0.01 89 1013.8
20260904034036 67 216 9.0 18.0 0.00 0.03 0.01 89 1013.7
20260904033537 67 213 7.0 20.0 0.00 0.03 0.01 89 1013.8
20260904033106 67 223 10.0 20.0 0.00 0.03 0.01 89 1013.9
20260904032536 67 192 8.0 19.0 0.00 0.03 0.01 89 1014.0
20260904032036 67 225 7.0 17.0 0.00 0.03 0.01 89 1014.1
20260904031558 67 199 8.0 17.0 0.00 0.03 0.01 89 1014.2
20260904031036 67 218 9.0 17.0 0.00 0.03 0.01 89 1014.2
20260904030541 67 254 7.0 16.0 0.00 0.03 0.01 89 1014.4
20260904030100 67 242 7.0 21.0 0.00 0.03 0.01 89 1014.5
20260904025537 67 221 8.0 21.0 0.00 0.03 0.01 89 1014.5
20260904025037 67 298 10.0 21.0 0.00 0.03 0.01 89 1014.6
20260904024602 67 207 11.0 26.0 0.00 0.03 0.01 89 1014.5
20260904024036 67 196 11.0 26.0 0.00 0.03 0.01 89 1014.6
20260904023537 67 267 10.0 24.0 0.00 0.03 0.01 89 1014.6
20260904023105 67 254 11.0 23.0 0.00 0.03 0.01 90 1014.5
20260904022537 67 205 9.0 18.0 0.00 0.03 0.01 90 1014.6
20260904022036 67 227 9.0 18.0 0.00 0.03 0.01 90 1014.6
20260904021601 67 225 8.0 16.0 0.00 0.03 0.01 90 1014.7
20260904021037 67 257 6.0 15.0 0.00 0.03 0.01 90 1014.8
20260904020536 67 193 5.0 19.0 0.00 0.02 0.00 90 1014.8
20260904020056 67 247 6.0 19.0 0.00 0.02 0.00 90 1014.9
20260904015536 67 242 7.0 17.0 0.00 0.02 0.00 90 1014.9
20260904015036 67 272 7.0 15.0 0.00 0.02 0.00 91 1015.0
20260904014554 66 269 7.0 22.0 0.00 0.02 0.00 90 1015.1
20260904014037 66 263 5.0 22.0 0.00 0.02 0.00 90 1015.1
20260904013537 66 227 8.0 22.0 0.00 0.02 0.00 90 1015.2
20260904013058 66 215 5.0 15.0 0.00 0.02 0.00 90 1015.2
20260904012539 66 229 4.0 15.0 0.00 0.02 0.00 90 1015.2
20260904012038 66 213 7.0 15.0 0.00 0.02 0.00 90 1015.4
20260904011558 66 234 5.0 12.0 0.00 0.02 0.00 90 1015.3
20260904011041 66 218 2.0 14.0 0.00 0.02 0.00 90 1015.4
20260904010537 66 232 5.0 14.0 0.00 0.02 0.00 90 1015.5
20260904010104 66 248 6.0 14.0 0.00 0.02 0.00 90 1015.5
20260904005537 66 181 6.0 14.0 0.00 0.02 0.00 90 1015.6
20260904005037 66 180 4.0 13.0 0.00 0.02 0.00 90 1015.7
20260904004604 66 223 5.0 13.0 0.00 0.02 0.00 90 1015.7
20260904004039 66 230 4.0 11.0 0.00 0.02 0.00 90 1015.9
20260904003537 66 210 6.0 11.0 0.00 0.02 0.00 90 1015.9
20260904003056 66 221 4.0 12.0 0.00 0.02 0.00 90 1015.9
20260904002537 66 202 5.0 13.0 0.00 0.02 0.00 90 1015.9
20260904002037 66 217 6.0 15.0 0.00 0.02 0.00 90 1016.1
20260904001553 66 178 8.0 15.0 0.00 0.02 0.00 90 1016.1
20260904001036 66 266 6.0 15.0 0.00 0.02 0.00 90 1016.1
20260904000539 66 233 7.0 15.0 0.00 0.02 0.00 90 1016.1
20260904000136 66 215 8.0 14.0 0.00 0.02 0.00 90 1016.4
20260903235535 66 207 6.0 14.0 0.00 0.02 0.00 90 1016.4
20260903235037 66 213 5.0 15.0 0.00 0.02 0.00 90 1016.6
20260903234558 66 257 5.0 15.0 0.00 0.02 0.00 90 1016.7
20260903234037 66 208 5.0 13.0 0.00 0.02 0.00 90 1016.6
20260903233537 66 245 6.0 13.0 0.00 0.02 0.00 90 1016.8
20260903233101 66 256 5.0 13.0 0.00 0.02 0.00 90 1016.7
20260903232535 66 248 6.0 17.0 0.00 0.02 0.00 90 1016.7
20260903232037 66 275 7.0 17.0 0.00 0.02 0.00 90 1016.7
20260903231554 66 202 4.0 15.0 0.00 0.01 0.00 90 1016.7
20260903231036 66 240 7.0 15.0 0.00 0.01 0.00 90 1016.8
20260903230537 66 209 5.0 15.0 0.00 0.01 0.00 90 1016.9
20260903230113 67 236 5.0 15.0 0.00 0.01 0.00 90 1016.9
20260903225536 67 211 5.0 14.0 0.00 0.01 0.01 90 1017.0
20260903225036 67 240 5.0 17.0 0.00 0.01 0.01 90 1017.0
20260903224607 67 227 5.0 17.0 0.00 0.01 0.01 90 1017.1
20260903224036 67 188 7.0 17.0 0.00 0.01 0.01 89 1017.2
20260903223536 67 239 6.0 13.0 0.00 0.01 0.01 89 1017.2
20260903223104 67 0 5.0 11.0 0.00 0.01 0.01 89 1017.2
20260903222536 67 230 4.0 10.0 0.00 0.01 0.01 89 1017.2
20260903222036 67 234 5.0 10.0 0.00 0.01 0.01 89 1017.3
20260903221559 67 252 4.0 16.0 0.00 0.01 0.01 89 1017.4
20260903221035 67 239 5.0 16.0 0.00 0.01 0.01 89 1017.3
20260903220535 67 207 5.0 15.0 0.00 0.01 0.01 89 1017.4
20260903220119 67 192 6.0 12.0 0.00 0.01 0.01 88 1017.4
20260903215538 67 200 5.0 13.0 0.00 0.01 0.01 88 1017.4
20260903215036 67 198 6.0 13.0 0.00 0.01 0.01 88 1017.5
20260903214556 67 229 4.0 13.0 0.00 0.01 0.01 88 1017.6
20260903214036 67 249 3.0 13.0 0.00 0.01 0.01 87 1017.8
20260903213539 67 207 5.0 14.0 0.00 0.01 0.01 87 1017.7
20260903213054 67 177 4.0 15.0 0.00 0.01 0.01 87 1017.7
20260903212536 67 221 4.0 15.0 0.00 0.01 0.01 87 1017.7
20260903212038 67 196 5.0 15.0 0.00 0.01 0.01 87 1017.8
20260903211620 67 196 5.0 14.0 0.00 0.01 0.01 87 1017.9
20260903211039 67 236 5.0 14.0 0.00 0.01 0.01 87 1018.0
20260903210536 67 213 5.0 10.0 0.00 0.01 0.01 87 1017.9
20260903205535 67 277 2.0 8.0 0.00 0.01 0.01 87 1018.1
20260903205036 67 212 3.0 10.0 0.00 0.01 0.01 87 1018.2
20260903204556 67 250 4.0 12.0 0.00 0.01 0.01 87 1018.3
20260903204036 67 219 3.0 12.0 0.00 0.01 0.01 87 1018.2
20260903203536 67 253 5.0 14.0 0.00 0.01 0.01 87 1018.4
20260903203054 67 214 6.0 14.0 0.00 0.01 0.01 87 1018.2
20260903202536 67 224 6.0 14.0 0.00 0.01 0.01 87 1018.4
20260903202038 67 229 5.0 15.0 0.00 0.01 0.01 87 1018.3
20260903201601 68 248 7.0 15.0 0.00 0.01 0.01 87 1018.2
20260903201036 67 236 7.0 14.0 0.00 0.01 0.01 87 1018.2
20260903200536 68 207 4.0 13.0 0.00 0.01 0.01 87 1018.2
20260903200107 68 215 6.0 17.0 0.00 0.01 0.01 87 1018.1
20260903195535 67 227 7.0 17.0 0.00 0.01 0.01 87 1018.1
20260903195036 68 212 7.0 17.0 0.00 0.01 0.01 86 1018.1
20260903194605 68 241 10.0 17.0 0.00 0.01 0.01 87 1018.2
20260903194039 68 250 8.0 16.0 0.00 0.01 0.01 87 1018.3
20260903193536 68 275 7.0 16.0 0.00 0.01 0.01 86 1018.2
20260903193104 68 214 7.0 14.0 0.00 0.01 0.01 86 1018.2
20260903192536 68 215 7.0 14.0 0.00 0.01 0.01 86 1018.3
20260903192036 68 244 3.0 13.0 0.00 0.01 0.01 87 1018.3
20260903191559 68 265 6.0 19.0 0.00 0.01 0.01 87 1018.2
20260903191036 68 267 6.0 19.0 0.00 0.01 0.01 87 1018.1
20260903190539 68 261 7.0 14.0 0.00 0.01 0.01 87 1018.3
20260903190100 68 189 7.0 13.0 0.00 0.01 0.01 87 1018.4
20260903185535 68 292 4.0 17.0 0.00 0.01 0.01 86 1018.3
20260903185035 68 245 7.0 17.0 0.00 0.01 0.01 86 1018.3
20260903184603 68 210 6.0 14.0 0.00 0.01 0.01 86 1018.3
20260903184038 68 226 6.0 16.0 0.00 0.01 0.01 86 1018.1
20260903183536 68 184 5.0 16.0 0.00 0.01 0.01 86 1018.2
20260903183106 68 288 6.0 16.0 0.00 0.01 0.01 86 1018.1
20260903182539 68 240 5.0 15.0 0.00 0.01 0.01 86 1018.3
20260903182035 68 190 6.0 16.0 0.00 0.01 0.01 86 1018.3
20260903181607 68 251 4.0 16.0 0.00 0.01 0.01 86 1018.4
20260903181036 68 192 4.0 12.0 0.00 0.01 0.01 86 1018.4
20260903180544 68 227 7.0 16.0 0.00 0.01 0.01 86 1018.5
20260903180115 69 214 8.0 16.0 0.00 0.01 0.01 85 1018.5
20260903175536 69 209 6.0 17.0 0.00 0.01 0.01 85 1018.5
20260903175036 69 301 9.0 17.0 0.00 0.01 0.01 85 1018.5
20260903174614 69 268 8.0 17.0 0.00 0.01 0.01 85 1018.3
20260903174038 69 227 8.0 16.0 0.00 0.01 0.01 85 1018.3
20260903173536 69 223 9.0 15.0 0.00 0.01 0.01 84 1018.2
20260903173109 69 196 8.0 16.0 0.00 0.01 0.01 84 1018.3
20260903172536 70 316 10.0 20.0 0.00 0.01 0.01 84 1018.3
20260903172038 70 231 9.0 20.0 0.00 0.01 0.01 83 1018.4
20260903171605 70 215 8.0 21.0 0.00 0.01 0.01 82 1018.2
20260903171036 70 211 8.0 21.0 0.00 0.01 0.01 82 1018.2
20260903170537 70 237 9.0 17.0 0.00 0.01 0.01 82 1018.2
20260903170112 70 252 8.0 16.0 0.00 0.01 0.01 82 1018.2
20260903165535 70 207 7.0 16.0 0.00 0.01 0.01 82 1018.2
20260903165037 70 252 8.0 16.0 0.00 0.01 0.01 82 1018.2
20260903164557 71 248 8.0 16.0 0.00 0.01 0.01 81 1018.3
20260903164035 71 242 9.0 16.0 0.00 0.01 0.01 80 1018.3
20260903163535 72 179 8.0 21.0 0.00 0.01 0.01 79 1018.4
20260903163103 72 205 9.0 21.0 0.00 0.01 0.01 78 1018.3
20260903162534 72 270 8.0 15.0 0.00 0.01 0.01 78 1018.3
20260903162034 73 200 7.0 17.0 0.00 0.01 0.01 77 1018.3
20260903161605 73 200 7.0 17.0 0.00 0.01 0.01 77 1018.2
20260903161036 73 240 8.0 16.0 0.00 0.01 0.01 77 1018.2
20260903160535 73 221 7.0 16.0 0.00 0.01 0.01 76 1018.4
20260903160100 73 267 7.0 15.0 0.00 0.01 0.01 76 1018.2
20260903155539 74 264 8.0 16.0 0.00 0.01 0.01 76 1018.3
20260903155036 74 271 7.0 16.0 0.00 0.01 0.01 76 1018.4
20260903154559 74 248 7.0 15.0 0.00 0.01 0.01 75 1018.3
20260903154036 74 196 8.0 16.0 0.00 0.01 0.01 75 1018.4
20260903153536 74 271 7.0 17.0 0.00 0.01 0.01 75 1018.3
20260903153059 75 236 9.0 17.0 0.00 0.01 0.01 74 1018.4
20260903152537 76 193 6.0 19.0 0.00 0.01 0.01 73 1018.4
20260903152035 75 245 8.0 19.0 0.00 0.01 0.01 72 1018.5
20260903151558 75 222 10.0 19.0 0.00 0.01 0.01 72 1018.6
20260903151034 75 250 10.0 19.0 0.00 0.01 0.01 73 1018.5
20260903150534 75 281 11.0 19.0 0.00 0.01 0.01 72 1018.6
20260903150112 75 294 10.0 18.0 0.00 0.01 0.01 72 1018.5
20260903145534 76 311 7.0 17.0 0.00 0.01 0.01 73 1018.6
20260903145035 75 266 10.0 18.0 0.00 0.01 0.01 73 1018.6
20260903144603 75 262 9.0 18.0 0.00 0.01 0.01 73 1018.6
20260903144035 75 240 9.0 18.0 0.00 0.01 0.01 73 1018.7
20260903143534 75 289 8.0 20.0 0.00 0.01 0.01 75 1018.6
20260903143101 75 254 9.0 20.0 0.00 0.01 0.01 75 1018.7
20260903142535 74 242 9.0 20.0 0.00 0.01 0.01 76 1018.7
20260903142036 74 257 8.0 18.0 0.00 0.01 0.01 76 1018.8
20260903141556 75 221 8.0 16.0 0.00 0.01 0.01 75 1018.9
20260903141034 74 198 8.0 17.0 0.00 0.01 0.01 76 1018.9
20260903140534 74 255 8.0 17.0 0.00 0.01 0.01 76 1018.9
20260903140100 74 213 8.0 16.0 0.00 0.01 0.01 77 1018.9
20260903135536 74 215 7.0 16.0 0.00 0.03 0.01 77 1018.9
20260903135036 74 215 9.0 17.0 0.00 0.03 0.01 76 1018.9
20260903134559 74 219 10.0 17.0 0.00 0.03 0.01 76 1018.9
20260903134035 74 258 7.0 16.0 0.00 0.03 0.01 77 1019.0
20260903133535 74 211 8.0 16.0 0.00 0.03 0.01 77 1018.9
20260903133056 73 240 6.0 16.0 0.00 0.03 0.01 78 1018.8
20260903132537 73 240 8.0 17.0 0.00 0.03 0.01 77 1018.9
20260903132036 74 206 7.0 17.0 0.00 0.03 0.01 77 1018.9
20260903131603 74 223 6.0 17.0 0.00 0.03 0.01 77 1018.9
20260903131038 74 206 7.0 17.0 0.00 0.03 0.01 76 1018.8
20260903130535 74 232 6.0 13.0 0.00 0.03 0.01 77 1018.9
20260903130115 74 277 8.0 13.0 0.00 0.03 0.01 77 1018.9
20260903125536 74 212 7.0 13.0 0.00 0.03 0.01 78 1019.0
20260903125036 73 198 6.0 13.0 0.00 0.03 0.01 78 1019.1
20260903124555 73 202 7.0 16.0 0.00 0.03 0.01 78 1019.1
20260903124036 74 215 8.0 16.0 0.00 0.03 0.01 78 1019.3
20260903123536 74 252 7.0 14.0 0.00 0.03 0.01 78 1019.3
20260903123102 73 209 6.0 14.0 0.00 0.03 0.01 79 1019.2
20260903122536 73 226 6.0 17.0 0.00 0.03 0.01 79 1019.2
20260903122036 73 202 8.0 17.0 0.00 0.03 0.01 78 1019.3
20260903121607 73 275 10.0 16.0 0.00 0.03 0.01 78 1019.3
20260903121036 73 257 6.0 16.0 0.00 0.03 0.01 79 1019.2
20260903120536 73 243 6.0 16.0 0.00 0.03 0.01 79 1019.2
20260903120059 73 240 5.0 17.0 0.00 0.03 0.01 80 1019.2
20260903115537 72 181 4.0 17.0 0.00 0.03 0.01 80 1019.1
20260903115036 73 206 7.0 15.0 0.00 0.03 0.01 79 1019.2
20260903114609 73 238 7.0 15.0 0.00 0.03 0.01 79 1019.2
20260903114036 72 219 6.0 15.0 0.00 0.03 0.01 79 1019.1
20260903113536 72 218 7.0 11.0 0.00 0.03 0.01 80 1019.1
20260903113101 72 223 4.0 14.0 0.00 0.03 0.01 81 1019.1
20260903112539 72 240 7.0 14.0 0.00 0.03 0.01 80 1019.1
20260903112035 72 242 6.0 14.0 0.00 0.03 0.01 80 1019.2
20260903111623 72 231 5.0 17.0 0.00 0.03 0.01 81 1019.2
20260903111036 72 234 3.0 17.0 0.00 0.03 0.01 81 1019.1
20260903110535 72 227 9.0 15.0 0.00 0.03 0.01 79 1019.3
20260903110109 73 213 3.0 12.0 0.00 0.03 0.01 79 1019.3
20260903105540 72 217 5.0 12.0 0.00 0.03 0.01 78 1019.2
20260903105039 72 267 5.0 12.0 0.00 0.03 0.01 79 1019.2
20260903104632 72 217 5.0 11.0 0.00 0.03 0.01 80 1019.3